Grand Rapids, MI

2:13 AM EDT on March 26, 2017 (GMT -0400)
Gerald R. Ford International

Weather History for KGRR - October, 2013

Change the Weather History Date:

Sunday, October 20, 2013

  Actual Average Record
Temperature  
Mean Temperature 48 °F 50 °F  
Max Temperature 58 °F 59 °F 83 °F (1953)
Min Temperature 37 °F 41 °F 22 °F (1974)
Degree Days  
Heating Degree Days 17 15  
Month to date heating degree days 159 248  
Since 1 July heating degree days 297 400  
Cooling Degree Days 0 0  
Month to date cooling degree days 14 4  
Year to date cooling degree days 767 696  
Moisture  
Dew Point 40 °F    
Average Humidity 70    
Maximum Humidity 93    
Minimum Humidity 47    
Precipitation  
Precipitation 0.12 in 0.10 in 1.11 in (1916)
Month to date precipitation 3.59 2.10  
Year to date precipitation 37.16 31.10  
Snow  
Snow 0.00 in 0.00 in 2.20 in (1992)
Month to date snowfall 0.0 0.1  
Since 1 July snowfall 0.0 0.1  
Since 1 September snowfall 0.0 0.1  
Snow Depth 0.00 in    
Sea Level Pressure  
Sea Level Pressure 29.83 in    
Wind  
Wind Speed 9 mph (SSW)    
Max Wind Speed 24 mph    
Max Gust Speed 33 mph    
Visibility 10 miles    
Events Rain    
T = Trace of Precipitation, MM = Missing Value Source: NWS Daily Summary

Daily Weather History Graph

Daily Weather History Graph

Search for Another Location

Airport or City:

Trip Planner

Search our weather history database for the weather conditions in past years. The results will help you decide how hot, cold, wet, or windy it might be!

Date:

Astronomy

Oct. 20, 2013 Rise Set
Actual Time 8:01 AM EDT 6:51 PM EDT
Civil Twilight 7:32 AM EDT 7:19 PM EDT
Nautical Twilight 7:00 AM EDT 7:52 PM EDT
Astronomical Twilight 6:27 AM EDT 8:25 PM EDT
Moon 7:56 PM EDT (10/20) 9:41 AM EDT (10/20)
Length of Visible Light 11h 46m
Length of Day
10h 49m
Full, 97% of the Moon is Illuminated
Oct 20
Full
Oct 26
Last Quarter
Nov 3
New
Nov 10
First Quarter
Nov 17
Full

Hourly Weather History & Observations

Time (EDT) Temp. Windchill Dew Point Humidity Pressure Visibility Wind Dir Wind Speed Gust Speed Precip Events Conditions
12:34 AM 41.0 °F 35.8 °F 39.2 °F 93% 29.80 in 10.0 mi South 8.1 mph - N/A   Mostly Cloudy
12:53 AM 39.9 °F 34.5 °F 37.9 °F 93% 29.81 in 8.0 mi South 8.1 mph - N/A   Partly Cloudy
1:53 AM 43.0 °F 39.5 °F 39.9 °F 89% 29.81 in 10.0 mi South 5.8 mph - 0.00 in   Overcast
2:53 AM 44.1 °F 38.6 °F 39.9 °F 85% 29.80 in 10.0 mi SSW 10.4 mph 21.9 mph 0.00 in Rain Light Rain
3:17 AM 44.6 °F 39.7 °F 39.2 °F 81% 29.79 in 4.0 mi West 9.2 mph 20.7 mph 0.04 in Rain Light Rain
3:31 AM 44.6 °F 40.7 °F 39.2 °F 81% 29.79 in 10.0 mi SSW 6.9 mph - 0.04 in   Mostly Cloudy
3:53 AM 44.1 °F 39.5 °F 41.0 °F 89% 29.80 in 10.0 mi South 8.1 mph - 0.04 in   Overcast
4:53 AM 43.0 °F 37.7 °F 39.9 °F 89% 29.81 in 10.0 mi SSW 9.2 mph - N/A   Mostly Cloudy
5:53 AM 41.0 °F 36.4 °F 39.0 °F 93% 29.82 in 10.0 mi SSW 6.9 mph - N/A   Mostly Cloudy
6:53 AM 39.9 °F 36.7 °F 37.0 °F 89% 29.83 in 10.0 mi SSW 4.6 mph - N/A   Scattered Clouds
7:53 AM 37.9 °F 34.4 °F 34.0 °F 86% 29.84 in 9.0 mi South 4.6 mph - N/A   Mostly Cloudy
8:53 AM 37.0 °F 31.6 °F 35.1 °F 93% 29.86 in 6.0 mi South 6.9 mph - N/A   Mostly Cloudy
9:53 AM 45.0 °F 42.6 °F 39.9 °F 82% 29.88 in 10.0 mi SW 4.6 mph - N/A   Mostly Cloudy
10:53 AM 46.9 °F - 41.0 °F 80% 29.90 in 10.0 mi SSW 6.9 mph - N/A   Mostly Cloudy
11:53 AM 48.9 °F - 41.0 °F 74% 29.90 in 10.0 mi SSW 5.8 mph - N/A   Mostly Cloudy
12:53 PM 51.1 °F - 39.0 °F 63% 29.90 in 10.0 mi SSW 9.2 mph - N/A   Mostly Cloudy
1:53 PM 53.1 °F - 37.9 °F 57% 29.88 in 10.0 mi SW 10.4 mph 18.4 mph N/A   Mostly Cloudy
2:53 PM 55.0 °F - 37.0 °F 51% 29.86 in 10.0 mi WSW 8.1 mph - N/A   Mostly Cloudy
3:53 PM 57.0 °F - 37.9 °F 49% 29.84 in 10.0 mi Variable 3.5 mph - N/A   Mostly Cloudy
4:53 PM 55.9 °F - 37.9 °F 51% 29.84 in 10.0 mi South 9.2 mph - N/A   Overcast
5:53 PM 54.0 °F - 42.1 °F 64% 29.83 in 10.0 mi South 6.9 mph - 0.00 in   Overcast
6:53 PM 54.0 °F - 41.0 °F 62% 29.81 in 10.0 mi SE 8.1 mph - N/A   Overcast
7:53 PM 53.1 °F - 41.0 °F 64% 29.79 in 10.0 mi SE 8.1 mph - N/A   Overcast
8:53 PM 54.0 °F - 42.1 °F 64% 29.78 in 10.0 mi SSE 9.2 mph - N/A   Overcast
9:53 PM 57.0 °F - 42.1 °F 57% 29.74 in 10.0 mi South 17.3 mph 23.0 mph N/A   Overcast
10:53 PM 55.9 °F - 45.0 °F 67% 29.77 in 10.0 mi SW 18.4 mph 24.2 mph 0.01 in Rain Light Rain
11:53 PM 55.9 °F - 46.0 °F 69% 29.76 in 10.0 mi SW 21.9 mph 33.4 mph 0.00 in Rain Light Rain